sat.trackr.live / text

‹ back to catalog

UNKNOWN

NORAD 89003

UNKNOWN UNKNOWN UNKNOWN

§ Identity

Operator
Country
Launch date
Launch site
Launch vehicle
Mass (kg)
RCS (m²)

External: N2YO · Heavens-Above

§ Orbital elements

Epoch: 2026-09-15T14:04:03.982944Z

Period
100.25 min
Inclination
74.0452°
Eccentricity
0.0016387
Mean motion
14.36356221 rev/d
Perigee alt
758.8 km
Apogee alt
782.3 km
Semi-major
7,148.7 km
B*
6.6721e-5
RAAN
226.4487°
Arg perigee
220.2513°
Mean anomaly
139.7428°
Rev number
67,129

§ Raw data

UNKNOWN1 89003U          26258.58615721  .00000169  00000+0  66721-4 0  99992 89003  74.0452 226.4487 0016387 220.2513 139.7428 14.36356221671299

JSON: /api/v1/satellites/89003 · /tle

For live sub-satellite position, see the globe view (requires WebGL).

§ Visibility from observer

Set your observer location to see the next 7 days of passes ≥ 10°. The values pass through the URL so the page stays shareable.

No JS? Fill the form by hand. The geolocation button needs JavaScript.